Location: Bats
(43.6587°N, 0.4584°W)
Time: 08:52:27
(UTC+00:00)

Cosmos 1850 Rocket - Pass Details

Date: 12 January 2026
Orbit: 749 x 781 km, 74.0° (Epoch: 17 February)

Event Time Altitude Azimuth Distance (km) Brightness Sun altitude
Rises 18:51:34 0° 338° (NNW) 3,256 7.4 -22.0°
Reaches altitude 10° 18:53:57 10° 338° (NNW) 2,329 6.6 -22.4°
Maximum altitude 18:59:15 83° 251° (WSW) 790 4.0 -23.3°
Drops below altitude 10° 19:04:33 10° 165° (SSE) 2,327 6.4 -24.3°
Sets 19:06:56 0° 164° (SSE) 3,252 7.2 -24.7°
